Defiance, OH

7:56 PM EDT on October 21, 2017 (GMT -0400)
Defiance Memorial

Weather History for KDFI - April, 2013

Change the Weather History Date:

Monday, April 22, 2013

  Actual Average Record
Temperature  
Mean Temperature 47 °F -  
Max Temperature 64 °F 62 °F 87 °F (1985)
Min Temperature 30 °F 41 °F 24 °F (1936)
Degree Days  
Heating Degree Days 18    
Moisture  
Dew Point 31 °F    
Average Humidity 56    
Maximum Humidity 89    
Minimum Humidity 29    
Precipitation  
Precipitation 0.00 in - - ()
Sea Level Pressure  
Sea Level Pressure 30.31 in    
Wind  
Wind Speed 5 mph (East)    
Max Wind Speed 12 mph    
Max Gust Speed 18 mph    
Visibility 10 miles    
Events      
Averages and records for this station are not official NWS values.
T = Trace of Precipitation, MM = Missing Value Source: NWS Daily Summary

Daily Weather History Graph

Daily Weather History Graph

Search for Another Location

Airport or City:

Trip Planner

Search our weather history database for the weather conditions in past years. The results will help you decide how hot, cold, wet, or windy it might be!

Date:

Astronomy

Apr. 22, 2013 Rise Set
Actual Time 6:47 AM EDT 8:25 PM EDT
Civil Twilight 6:17 AM EDT 8:55 PM EDT
Nautical Twilight 5:42 AM EDT 9:30 PM EDT
Astronomical Twilight 5:04 AM EDT 10:08 PM EDT
Moon 5:11 PM EDT (4/22) 4:43 AM EDT (4/22)
Length of Visible Light 14h 37m
Length of Day
13h 38m
Waxing Gibbous, 87% of the Moon is Illuminated
Apr 22
Waxing Gibbous
Apr 25
Full
May 2
Last Quarter
May 9
New
May 18
First Quarter

Hourly Weather History & Observations

Time (EDT) Temp. Windchill Dew Point Humidity Pressure Visibility Wind Dir Wind Speed Gust Speed Precip Events Conditions
12:53 AM 35.1 °F 29.3 °F 28.0 °F 76% 30.45 in 10.0 mi East 6.9 mph - N/A   Clear
1:53 AM 35.1 °F 30.1 °F 28.0 °F 76% 30.44 in 10.0 mi East 5.8 mph - N/A   Clear
2:53 AM 33.1 °F 28.7 °F 27.0 °F 78% 30.42 in 10.0 mi East 4.6 mph - N/A   Clear
3:53 AM 33.1 °F - 27.0 °F 78% 30.41 in 10.0 mi Calm Calm - N/A   Clear
4:53 AM 32.0 °F - 28.0 °F 85% 30.39 in 10.0 mi Calm Calm - N/A   Clear
5:53 AM 30.9 °F - 27.0 °F 85% 30.38 in 10.0 mi Calm Calm - N/A   Clear
6:53 AM 30.9 °F - 28.0 °F 89% 30.39 in 7.0 mi Calm Calm - N/A   Clear
7:53 AM 34.0 °F - 30.0 °F 85% 30.39 in 10.0 mi Calm Calm - N/A   Clear
8:53 AM 39.9 °F 37.8 °F 32.0 °F 73% 30.38 in 10.0 mi ENE 3.5 mph - N/A   Clear
9:53 AM 45.0 °F 42.6 °F 30.9 °F 58% 30.38 in 10.0 mi East 4.6 mph - N/A   Clear
10:53 AM 53.1 °F - 34.0 °F 48% 30.37 in 10.0 mi Variable 4.6 mph - N/A   Clear
11:53 AM 57.0 °F - 34.0 °F 42% 30.36 in 10.0 mi Variable 4.6 mph - N/A   Clear
12:53 PM 59.0 °F - 30.0 °F 33% 30.33 in 10.0 mi ESE 6.9 mph - N/A   Clear
1:53 PM 60.1 °F - 28.0 °F 30% 30.30 in 10.0 mi SSE 6.9 mph - N/A   Clear
2:53 PM 61.0 °F - 28.9 °F 30% 30.27 in 10.0 mi South 5.8 mph - N/A   Clear
3:53 PM 63.0 °F - 30.0 °F 29% 30.25 in 10.0 mi Variable 3.5 mph - N/A   Clear
4:53 PM 64.0 °F - 30.9 °F 29% 30.23 in 10.0 mi SSW 5.8 mph - N/A   Clear
5:53 PM 64.0 °F - 30.9 °F 29% 30.21 in 10.0 mi Variable 5.8 mph - N/A   Clear
6:53 PM 64.9 °F - 32.0 °F 29% 30.18 in 10.0 mi ESE 6.9 mph - N/A   Clear
7:53 PM 59.0 °F - 34.0 °F 39% 30.18 in 10.0 mi East 11.5 mph 18.4 mph N/A   Clear
8:53 PM 53.1 °F - 34.0 °F 48% 30.18 in 10.0 mi East 9.2 mph - N/A   Clear
9:53 PM 50.0 °F - 36.0 °F 59% 30.19 in 10.0 mi East 6.9 mph - N/A   Clear
10:53 PM 48.0 °F - 36.0 °F 63% 30.19 in 10.0 mi East 8.1 mph - N/A   Clear
11:53 PM 46.9 °F - 35.1 °F 63% 30.17 in 10.0 mi East 6.9 mph - N/A   Clear